Weather in Yedelevo

Russia / Ulyanovsk Oblast     53°24′17″N   47°44′45″E
temp.,
°C
wind,
m/s
gust,
m/s
humid.,
%
clouds,
%
prec.,
mm/h
press.,
hPa
HPBL,
m
25 january, tue
tue2501:00−19ene1110099 0.0 10359
04:00−19ese1199100 0.0 10349
07:00−20se1110024 0.0 10329
10:00−18sse229938 0.0 103134
13:00−12sse3588100 0.0 1029177
16:00−12sse2692100 0.0 1027176
19:00−18sse229969 0.0 102615
22:00−15sse239871 0.0 102570
26 january, wed
wed2601:00−15sse239995 0.1 102372
04:00−13s249798 0.1 102292
07:00−16s229984 0.1 102111
10:00−14ssw229893 0.1 102049
13:00−9sw2392100 0.0 1019243
16:00−9ssw2494100 0.1 1018163
19:00−12sw2299100 0.0 101914
22:00−17wsw2210074 0.0 102012
27 january, thu
thu2701:00−19sw2210085 0.0 102016
04:00−19sw2210098 0.0 102125
07:00−18sw23100100 0.0 102140
10:00−15ssw3798100 0.0 1021137
13:00−9sw4992100 0.0 1020335
16:00−7ssw4994100 0.1 1020471
19:00−12s259988 0.1 102068
22:00−12s259992 0.1 102081
28 january, fri
fri2801:00−10s399690 0.2 1020195
04:00−12sse249993 0.3 101980
07:00−14sse24100100 0.1 101955
10:00−12s269999 0.1 1019125
13:00−8sse479386 0.0 1017271
16:00−9sse379489 0.0 1016246
19:00−16se2210072 0.0 101711
22:00−18sse2210099 0.0 101612
29 january, sat
sat2901:00−18sse22100100 0.0 101522
04:00−17sse24100100 0.1 101453
07:00−12sse31196100 0.3 1012228
10:00−10sse4119599 1.1 1011279
13:00−7s589399 0.3 1010300
16:00−5s4996100 0.3 1009324
19:00−8s2798100 0.1 1009130
22:00−5s3109894 0.2 1008240